STARLINK-11435, 62891

Orbit data source: Space-Track

STARLINK-11435, 62891 is a payload satellite owned by SpaceX/Seattle (US) in LEO that was launched on Tue, 04 Feb 2025 UTC via an FALCON 9 launch vehicle from the Air Force Eastern Test Range (AFETR). Payload-class satellites include a variety of spacecraft equipped with specific instruments for various scientific and technological missions. These include communications satellites like Starlink; space stations such as the ISS; scientific satellites like the Hubble; Earth observation satellites from companies like Planet Labs, Umbra, and HawkEye 360; GPS; miniature CubeSats for education and research; and military/defense satellites.

Loading next visibility...
Identifier
62891, 2025-024N
Orbit
LEO
Country
Flag of USUS
Related business
Manufacturer
SpaceX/Seattle
Mission
Operational Commercial Communications
Bus & Motor
STARLINK V2MD, Unknown motor
Mass
960 kg wet, ~910 kg dry
Launch date (UTC)
2025-02-04 (10 months ago)
Launch vehicle
FALCON 9
Launch site
Air Force Eastern Test Range (AFETR)
Object type
Payload
Rocket body
Debris
Shape & HBR
Box + 2 Pan, 18.1 m
Radar Cross Section
36.964 m², Large (>1 m²)

Expand to show TLE details & history
Last TLE update: 1 day ago

TLE from 1 day ago
0 STARLINK-11435
1 62891U 25024N   25348.11417704  .00003698  00000-0  32312-4 0  9997
2 62891  43.0007 337.6463 0001122 182.4690 177.6173 15.70829826 50005
Epoch: 2025-12-14T02:44Z
TLE epoch observation values (Epoch: 2025-12-14T02:44:24.896Z)
Latitude
0.00004°
Longitude
-146.48913°
Altitude
357.05 km
Speed
7.696 km/s
True Right ascension
22h 30m 35s
True Declination
0° 00' 00"
Sunlit
Object was in daylight at epoch
Visualization orbit readout
Latitude
Unknown
Longitude
Unknown
Altitude
Unknown
Speed
Unknown
Apparent Right ascension
Unknown
Apparent Declination
Unknown
Sunlit
N/A
Visualization observer readout
Local Sidereal Time
12:44:39
Azimuth
Unknown
Elevation
Unknown
Doppler factor
Unknown
Orbital elements
Apogee altitude
359.261 km
Perigee altitude
357.75 km
Semi-major axis
6,736.643 km
Eccentricity
0.00011
Inclination
43.0007°
RAAN
337.6463°
Arg. of periapsis
182.469°
True anomaly
177.61783°
Mean anomaly
177.6173°
Eccentric anomaly
177.61757°
Mean motion
3.92535 °/min
Orbital period
91.71 mins
BSTAR
0.000032312
Loading maneuver chart data...
Computing Atmospheric mass density...
Loading historical data...
Loading historical data...
Loading historical data...
Loading historical data...
Loading historical data...
Loading historical data...
Loading historical data...

Documentation

Showing up to 5 results
|